Regional Weather Roundup
Issued by NWS San Angelo, TX

Home | Current Version | Previous Version | Text Only | Print | Product List | Glossary On
Versions: 1 2 3 4 5 6 7 8 9 10 11 12 13 14 15 16 17 18 19 20 21 22 23 24 25 26 27 28 29 30 31 32 33 34 35 36 37 38 39 40 41 42 43 44 45 46 47 48 49 50
000
ASUS44 KSJT 270211
RWRSJT
WEST CENTRAL TEXAS REGIONAL WEATHER ROUNDUP
NATIONAL WEATHER SERVICE SAN ANGELO TX
900 PM CDT THU MAY 26 2016

NOTE: "FAIR" INDICATES FEW OR NO CLOUDS BELOW 12,000 FEET WITH NO
SIGNIFICANT WEATHER AND/OR OBSTRUCTIONS TO VISIBILITY.

TXZ049-054-064>066-071>073-076>078-098-099-113-114-127-128-139-140-
154-155-168>170-270300
...LOCATIONS ACROSS WEST CENTRAL TEXAS...

CITY           SKY/WX    TMP DP  RH WIND       PRES   REMARKS
SAN ANGELO     PTCLDY    68  64  87 S3        29.72F
ABILENE        LGT RAIN  68  65  90 SE17G31   29.76F
DYESS AFB      CLOUDY    70  63  78 SE33G40   29.73F
JUNCTION       CLOUDY    84  72  67 S12       29.73S
SWEETWATER     CLOUDY    73  59  61 S16       29.74S
BROWNWOOD      RAIN      66  64  94 NW14G25   29.81R
COLEMAN        CLOUDY    64  62  94 NW7       29.77R
SONORA         CLOUDY    82  63  51 S10       29.76F
OZONA          FAIR      81  55  41 S12G20    29.74S
BRADY          NOT AVBL
$$

TEXAS PANHANDLE/OKLAHOMA PANHANDLE

CITY           SKY/WX    TMP DP  RH WIND       PRES   REMARKS
AMARILLO       CLEAR     75  24  15 SW14      29.70S
BORGER         CLEAR     81  23  11 SW14G20   29.64S
CANADIAN       CLOUDY    81  67  61 S21       29.57F THUNDER
DALHART        CLEAR     69  23  17 SW13      29.71R
DUMAS          CLEAR     70  35  27 W9        29.69R
GUYMON         NOT AVBL
HEREFORD       CLEAR     80  20  10 SW14      29.73R
PAMPA          CLEAR     72  39  30 SW12      29.67S
PERRYTON       CLEAR     72  45  37 SW9       29.61S
$$

SOUTHERN PANHANDLE/SOUTH PLAINS/ROLLING PLAINS

CITY           SKY/WX    TMP DP  RH WIND       PRES   REMARKS
LUBBOCK        PTCLDY    80  24  12 W10       29.70S
SNYDER           N/A     73  58  59 S17G25    29.70R
CHILDRESS      PTCLDY    78  70  76 SE21G28   29.60F
SEMINOLE       CLEAR     81  25  12 W10       29.73R
$$

PERMIAN BASIN

CITY           SKY/WX    TMP DP  RH WIND       PRES   REMARKS
MIDLAND        CLOUDY    83  57  41 S18       29.71R
ODESSA         MOCLDY    83  55  38 SE7       29.71R
WINK           MOCLDY    88  24  10 NW15      29.66R
$$

FAR WEST/SOUTHWEST MOUNTAINS/TRANS PECOS

CITY           SKY/WX    TMP DP  RH WIND       PRES   REMARKS
ALPINE         MOCLDY    83  36  18 SW9       29.85R
DRYDEN           N/A     79  59  50 E8        29.70R
EL PASO        CLEAR     80   4   5 W22G29    29.81R
FORT STOCKTON  PTCLDY    83  52  34 SE13      29.70R
GUADALUPE PASS NOT AVBL
MARFA          CLEAR     80  13   8 W13       29.85R
PECOS          CLOUDY    89  24   9 NW15      29.66R
$$

DALLAS/FORT WORTH METROPLEX

CITY           SKY/WX    TMP DP  RH WIND       PRES   REMARKS
DFW AIRPORT    MOCLDY    74  67  78 S17       29.76R
FTW MEACHAM    CLOUDY    75  67  76 SE15      29.75S
DAL-EXECUTIVE  CLEAR     72  66  81 SE14      29.77R
GRAND PRAIRIE  CLEAR     73  66  77 SE15      29.78S
ADDISON        PTCLDY    73  70  88 SE17G23   29.77R
MESQUITE       CLEAR     71  68  88 SE10      29.78F
LANCASTER      CLEAR     71  65  81 SE14      29.79S
$$

NORTH CENTRAL TEXAS

CITY           SKY/WX    TMP DP  RH WIND       PRES   REMARKS
SHRMAN/DENISON CLOUDY    70  61  73 SE10G18   29.76F
GAINESVILLE    CLOUDY    72  65  80 SE12G17   29.75F
BRIDGEPORT     CLOUDY    74  68  81 SE13G20   29.78R
DENTON         PTCLDY    73  66  78 SE9       29.75S
WAXAHACHIE     PTCLDY    71  67  88 SE9       29.79F
GRANBURY       CLOUDY    75  68  78 SE12G20   29.77R
$$

WESTERN NORTH TEXAS

CITY           SKY/WX    TMP DP  RH WIND       PRES   REMARKS
WICHITA FALLS  CLOUDY    75  65  70 SE18G26   29.68F
VERNON           N/A    N/A N/A N/A S25       29.75R THUNDER
BRECKENRIDGE   TSTM      73  68  83 S21G33    29.75R
COMANCHE       TSTM      73  70  91 S16G32    29.78R VSB 1
$$

CENTRAL AND SOUTH CENTRAL TEXAS

CITY           SKY/WX    TMP DP  RH WIND       PRES   REMARKS
AUSTIN/BERGSTM TSTM      74  73  97 E12       29.78R
WACO           CLOUDY    73  66  78 SE15G23   29.77R
HILLSBORO      PTCLDY    71  67  84 SE12G18   29.79R
TEMPLE         CLOUDY    72  68  88 SE13      29.79R
KILLEEN-GRAY   CLOUDY    70  68  94 E20       29.76S
FORT HOOD      CLOUDY    70  68  94 SE18      29.76S
GEORGETOWN     NOT AVBL
LAGO VISTA     MOCLDY    73  69  88 E10       29.78F
SAN MARCOS     CLOUDY    79  75  89 SE18G26   29.76S THUNDER
NEW BRAUNFELS  CLOUDY    82  76  81 SE18      29.75R
RANDOLPH AFB   CLOUDY    82  78  89 SE21      29.76R
SAN ANTONIO    CLOUDY    84  76  76 SE22      29.76R
STINSON        CLOUDY    85  76  74 SE18      29.72R
PLEASANTON     NOT AVBL
LA GRANGE      TSTM      75  70  85 E6G20     29.80F
GIDDINGS       HVY RAIN  70  69  97 SE14G22   29.86R
$$

EAST TEXAS

CITY           SKY/WX    TMP DP  RH WIND       PRES   REMARKS
PARIS          CLOUDY    72  61  68 S8        29.81R
CLARKSVILLE    NOT AVBL
TYLER          CLOUDY    72  66  81 S15G22    29.78F
LONGVIEW       CLOUDY    71  67  87 S17G28    29.77F
PALESTINE      CLOUDY    70  67  90 SE13G20   29.83F
NACOGDOCHES    CLOUDY    70  64  83 SE23G36   29.78F
$$

TEXAS HILL COUNTRY AND EDWARDS PLATEAU

CITY           SKY/WX    TMP DP  RH WIND       PRES   REMARKS
LLANO          PTCLDY    75  72  88 SE10G20   29.79R
HORSESHOE BAY  MOCLDY    74  70  85 SE12G17   29.77S
KERRVILLE      CLOUDY    82  76  84 SE5       29.78R
FREDERICKSBRG  MOCLDY    81  72  75 SE5       29.78S
ROCKSPRINGS    TSTM      64  63  94 NW18G45   29.86R
HONDO          PTCLDY    84  74  71 SE8       29.74R
UVALDE         CLOUDY    81  75  82 SE6       29.73R
DEL RIO        CLOUDY    78  67  68 NE9       29.68R
$$

SOUTHEAST TEXAS

CITY           SKY/WX    TMP DP  RH WIND       PRES   REMARKS
COLLEGE STN    CLOUDY    70  69  97 SE8       29.83R
CALDWELL       CLOUDY    70  70 100 SE8       29.84F
CROCKETT       CLOUDY    72  68  88 SE10G18   29.86F
BRENHAM        TSTM      71  71  98 SE15        N/A
HUNTSVILLE     TSTM      72  70  93 VRB7      29.85F
CONROE         TSTM      69  69 100 SE8         N/A
HOUSTON BUSH   TSTM      69  68  96 CALM      29.90R
HOUSTON HOBBY  CLOUDY    80  75  84 SE6       29.88R
PERLAND        CLOUDY    82  75  79 SE8       29.89S
WHARTON        CLOUDY    79  74  86 SE9       29.85S
$$

THE UPPER TEXAS COAST

CITY           SKY/WX    TMP DP  RH WIND       PRES   REMARKS
ORANGE         CLOUDY    78  74  88 SE5       29.96R
PORT ARTHUR    CLOUDY    79  75  87 VRB3      29.93R
GALVESTON      CLOUDY    80  76  87 SE16G23   29.90R
ANGLETON       PTCLDY    81  75  82 S13       29.86S
BAY CITY       CLOUDY    81  76  85 SE8       29.86R
$$

TEXAS COASTAL BEND, RIO GRANDE PLAINS DEEP SOUTH TEXAS

CITY           SKY/WX    TMP DP  RH WIND       PRES   REMARKS
VICTORIA       CLEAR     80  74  81 SE18G26   29.81R
BEEVILLE       FAIR      81  77  85 SE16      29.77R
ROCKPORT       CLOUDY    83  75  77 SE14G24   29.80R
PORT ARANSAS   MOCLDY    82  78  88 S18G26    29.80S
PORT LAVACA    NOT AVBL
CORPUS CHRISTI CLOUDY    82  76  81 SE20G25   29.78R
KINGSVILLE NAS CLOUDY    83  80  91 SE17      29.75R
COTULLA        CLOUDY    89  73  59 SE8       29.71R
LAREDO         MOCLDY    91  72  53 S17G30    29.71R
BROWNSVILLE    CLOUDY    81  76  84 S12       29.81R
PORT ISABEL    CLOUDY    83  77  82 S18G28    29.80R
HEBBRONVILLE   CLOUDY    85  74  68 S14       29.78R
MCALLEN        CLOUDY    85  75  72 SE10      29.80R
WESLACO        CLOUDY    83  75  77 S10       29.80R
FALFURRIAS     CLOUDY    85  73  65 S14       29.75R
EDINBURG       CLOUDY    85  74  69 S13G22    29.79R
$$




USA.gov is the U.S. government's official web portal to all federal, state and local government web resources and services.